カタログに戻る

CZ-6A DEB

運用中SSO
NORAD 54327·DEBRIS·🇨🇳 China

打ち上げ Nov 11, 2022 から Taiyuan Satellite Launch Center

Loading…

次のパス (今後24時間)

TLE

最新Source: Space-Track

元期: Sep 14, 2026, 16:59 UTC

1 54327U 22151BW  26257.70798721  .00000521  00000-0  30698-3 0  9992
2 54327  98.8346 253.6219 0049275  82.8845 277.7926 14.11659902197084

AllMySatでCZ-6A DEBをリアルタイム追跡

Download on the App Store